SCP
-0 -0 -0 -0 0 0 -0 -0 -0 0 0 0 0 0 0 -0 0 0 0 0 0 0 0 0 0 0 0 0 0 0 0 0 0 0 0 0 0 0 0 0 0 0 0
-0 -0 -0 -0 -0 -0 -0 -0 -0 -0 0 0 0 0 0 0 0 0 0 0 0 0 0 0 0 0 0 0 0 0 -0 -0 0 0 0 0 0 0 0 0 0 0 0
0 -0 -0 -0 -0 -0 -0 -0 -0 -0 0 0 0 0 0 0 0 0 0 0 0 0 0 0 0 0 0 0 0 0 0 0 0 0 0 0 0 0 0 0 0 0 0
-0 -0 -0 -0 0 0 0 0 0 0 0 0 0 0 0 0 0 0 0 0 0 0 0 0 0 0 0 0 0 0 0 0 0 0 0 0 0 0 0 0 0 0 0
0 -0 0 0 0 0 0 0 0 0 0 0 0 0 0 0 0 0 0 0 0 0 0 0 0 0 0 0 0 0 0 0 0 0 0 0 0 0 0 0 0 0 0
-0 -0 -0 -0 0 0 0 0 0 0 0 0 0 0 0 0 0 0 0 0 0 0 0 0 0 0 0 0 0 0 0 0 0 0 0 0 0 0 0 0 0 0 0
-0 -0 -0 -0 -0 0 0 1 1 1 0 0 0 0 0 0 1 0 0 0 0 0 0 0 0 0 0 0 0 0 0 0 0 0 0 0 0 0 0 0 0 0 0
-0 -0 -0 0 0 0 0 0 0 1 1 1 1 1 1 1 0 0 0 1 0 0 1 0 0 0 0 0 0 0 0 0 0 0 0 0 0 0 0 0 0 0 0
0 0 0 0 0 0 0 1 1 1 1 1 1 1 0 0 0 0 1 0 1 1 1 1 0 0 0 0 0 0 0 0 0 0 0 0 0 0 0 0 0 0 0
0 0 0 0 0 0 1 1 1 2 2 2 1 1 1 0 0 0 0 1 1 1 1 1 0 0 0 0 0 0 0 0 0 0 0 0 0 0 0 0 0 0 0
0 0 0 0 0 1 1 2 3 3 4 5 3 0 0 0 0 0 0 1 1 2 1 1 1 0 0 0 0 0 0 0 0 0 0 0 0 0 0 0 0 0 0
0 0 0 0 1 0 1 2 4 4 2 0 0 0 0 0 -0 -0 0 1 1 2 1 1 1 0 0 0 0 0 0 0 0 0 0 0 0 0 0 0 0 0 0
0 0 0 0 1 1 1 2 2 2 2 0 0 0 0 0 0 1 1 2 2 2 1 1 1 1 0 0 0 0 0 0 0 0 0 0 0 0 0 0 0 0 0
0 0 0 1 1 1 2 2 3 1 1 0 0 0 0 0 0 1 1 1 1 1 1 1 0 0 1 0 0 0 0 0 0 0 0 0 0 0 0 0 0 0 0
0 1 1 1 1 1 2 1 1 1 2 2 1 1 1 1 1 1 1 1 1 1 1 1 0 0 0 0 0 0 0 0 0 0 0 0 0 0 0 0 0 0 0
0 0 1 0 1 1 0 0 0 0 0 0 0 1 1 1 1 1 1 1 1 1 1 1 0 0 1 0 0 0 0 0 0 0 0 0 0 0 0 0 0 0 0
0 0 0 0 0 0 0 0 0 0 0 0 0 1 1 1 1 1 1 0 1 0 0 0 0 0 0 0 0 0 0 0 0 0 1 1 1 0 0 0 0 0 0
0 0 0 0 0 0 0 0 0 0 0 0 0 0 0 0 0 0 0 0 0 0 0 0 0 0 0 0 0 0 0 0 0 0 0 0 0 0 0 0 0 0 0
0 0 0 0 0 0 0 0 0 0 0 0 0 0 0 0 0 0 0 0 0 0 0 0 0 0 0 0 0 0 0 0 0 0 0 0 0 0 0 0 0 0 0
0 0 0 0 0 0 0 0 0 0 0 0 0 0 0 0 0 0 0 0 0 0 0 0 0 0 0 0 0 0 0 0 0 0 0 0 0 0 0 0 0 0 0
0 0 0 1 1 0 0 0 0 0 0 0 0 0 0 0 0 0 0 0 0 0 0 0 0 0 0 0 0 0 0 0 0 0 0 0 0 0 0 0 0 0 0
1 1 1 1 0 0 0 0 0 0 0 0 0 0 0 0 0 0 0 0 0 0 0 0 0 0 0 0 0 0 0 0 0 0 0 0 0 0 0 0 0 0 0
0 0 0 0 0 0 0 0 0 0 0 0 0 0 0 0 0 0 0 0 0 0 0 0 0 0 0 0 0 0 -0 0 0 0 0 0 0 0 0 0 0 0 0
0 0 0 0 0 0 0 0 0 0 0 0 0 0 0 0 0 0 0 0 0 0 0 0 0 0 0 0 0 0 0 0 0 0 0 0 0 0 0 0 0 0 0
0 0 0 0 0 0 0 0 0 0 0 0 0 0 0 0 0 0 0 0 0 0 0 0 0 0 0 0 0 0 0 0 0 0 0 0 0 0 0 0 0 0 0
0 0 0 0 0 0 0 0 0 0 0 0 0 0 0 0 0 0 0 0 0 0 0 0 0 0 0 0 0 0 0 0 0 0 0 0 0 0 0 0 0 0 0
Wind_Speed_500mb
22 20 12 12 20 25 30 35 40 43 42 36 30 23 20 19 19 16 22 23 22 28 21 11 16 13 17 16 16 13 16 17 18 17 19 20 23 25 24 23 21 22 22
22 23 21 15 14 22 25 26 34 41 43 35 24 19 12 11 11 13 16 20 26 27 22 17 16 19 16 19 16 19 16 16 19 18 18 22 22 27 33 30 29 29 26
14 17 22 19 13 18 22 23 29 33 39 31 23 20 14 7 7 11 13 18 20 21 22 22 17 25 20 17 17 18 23 19 20 27 21 14 18 13 18 29 33 34 33
5 13 20 21 18 19 21 22 25 30 31 25 20 18 12 8 8 12 15 26 24 23 23 22 21 25 20 22 20 20 21 27 24 22 28 33 23 15 16 16 24 33 37
9 13 12 15 16 15 18 21 23 27 29 27 25 17 13 12 17 19 21 20 22 20 22 23 22 24 30 27 28 25 24 24 26 25 24 26 28 29 32 31 21 23 30
13 13 13 14 14 14 15 15 19 24 27 26 25 16 17 17 19 20 17 16 16 20 22 22 24 26 30 37 34 36 32 26 27 26 27 29 25 30 28 33 32 28 21
20 19 17 14 15 18 21 22 26 28 27 26 23 19 20 22 24 18 16 16 16 19 20 24 26 24 29 33 34 37 35 34 32 33 30 29 32 32 30 28 33 31 27
26 25 23 21 22 24 25 26 27 28 27 24 21 24 22 21 19 20 18 16 15 20 25 28 28 26 27 31 34 35 37 34 37 37 35 34 38 36 33 35 32 35 32
29 27 25 24 22 25 26 26 28 27 23 20 19 20 19 18 21 25 25 20 20 19 23 27 28 30 27 31 35 37 37 41 43 44 43 42 34 35 34 34 35 33 40
29 28 27 26 24 22 21 19 19 17 17 15 10 9 14 19 28 30 26 26 25 28 29 28 26 29 32 30 34 35 39 48 48 44 37 40 41 38 31 36 35 34 40
30 28 28 26 24 17 15 16 17 17 18 17 19 3 17 15 37 48 39 32 30 35 35 33 33 32 33 33 40 44 39 39 40 46 48 48 46 38 42 42 37 40 42
21 25 26 25 22 17 16 16 20 28 27 18 14 14 36 51 76 62 50 42 41 35 39 37 37 36 36 31 30 44 48 48 42 44 48 48 48 51 47 45 48 40 38
13 11 12 13 15 15 17 17 19 17 8 20 37 57 51 41 42 55 47 42 34 35 39 38 38 33 31 32 29 34 37 44 49 52 56 54 49 54 50 54 48 53 46
13 14 11 7 7 9 12 13 15 19 21 7 6 10 13 26 33 31 28 28 28 32 30 33 35 37 37 36 36 36 37 40 46 55 61 64 63 64 59 58 61 60 59
23 26 24 24 20 17 14 8 4 3 8 6 6 11 15 19 18 21 23 23 23 27 29 30 31 34 36 33 28 31 34 36 43 42 43 48 58 68 66 66 63 62 66
25 28 30 32 29 22 20 19 14 9 7 3 2 3 7 12 15 17 18 18 21 23 24 27 24 24 24 25 28 30 33 36 43 46 45 48 44 47 57 62 67 67 66
22 23 24 22 19 15 12 9 9 9 7 5 4 6 10 13 19 21 18 19 22 21 22 25 30 27 25 37 35 32 35 36 39 47 47 48 45 42 37 41 43 46 59
16 15 14 14 13 11 10 9 8 7 5 5 7 13 19 20 18 14 19 29 34 40 38 39 38 36 38 39 39 42 47 52 55 50 49 43 49 51 59 55 54 62 53
9 7 5 5 7 8 10 8 8 11 13 16 16 19 19 19 21 27 30 29 30 30 31 33 37 35 34 42 43 45 44 45 46 44 49 54 58 47 48 50 50 54 58
4 1 3 7 8 12 12 9 11 12 12 14 16 18 19 20 23 22 26 24 25 32 38 41 41 40 42 43 46 44 46 40 40 46 49 49 48 63 72 45 47 52 53
5 6 6 6 5 10 13 9 11 10 11 15 18 21 19 20 23 23 22 29 32 32 37 43 42 41 39 40 45 43 48 46 48 49 50 50 51 44 45 44 54 56 47
7 6 8 7 6 11 10 11 12 10 15 16 16 18 20 20 21 25 30 33 35 38 44 45 47 42 39 40 41 48 49 50 56 51 48 46 50 51 49 52 56 54 43
10 9 10 11 9 8 12 13 17 18 17 15 16 21 23 25 26 29 35 39 40 43 48 52 51 47 43 43 43 39 47 54 55 55 48 48 51 56 59 56 49 44 47
13 13 13 13 15 15 15 20 23 22 22 24 29 29 30 32 33 35 44 44 48 50 52 54 54 55 52 48 42 45 51 49 47 52 47 49 50 51 47 44 39 34 35
12 9 12 16 17 18 19 20 22 24 31 35 36 37 41 39 42 46 48 54 51 52 59 51 56 59 55 49 54 54 51 58 58 55 44 41 45 42 38 29 26 31 29
13 15 17 20 23 26 30 31 30 29 33 38 42 43 45 50 49 52 56 55 61 58 58 60 55 51 42 47 50 57 62 69 50 44 36 31 32 32 30 24 28 32 32
Wind_Direction_500mb
211 208 215 219 219 212 210 212 215 214 215 218 220 234 251 279 266 244 258 259 261 280 283 279 266 248 225 218 228 237 226 225 228 233 240 248 248 239 236 235 230 227 221
214 224 223 230 223 209 210 211 213 211 211 216 222 227 227 231 216 234 280 286 287 286 277 253 252 241 224 227 240 216 211 219 225 226 246 249 244 248 239 234 237 235 236
224 206 205 199 203 201 206 208 209 205 205 205 229 228 224 221 252 262 273 291 282 277 267 263 245 246 229 242 232 215 208 220 237 224 232 249 252 253 241 239 235 236 238
184 153 165 180 190 197 199 197 198 195 197 210 219 223 212 216 250 284 255 283 272 266 261 263 266 247 227 226 231 224 219 230 230 242 238 239 249 255 257 244 244 236 236
147 144 165 183 190 193 195 192 187 190 201 212 217 231 223 241 270 283 274 279 269 268 268 261 263 251 228 236 219 226 244 239 232 241 244 243 243 250 251 266 246 245 240
176 166 164 172 181 199 210 203 196 200 210 219 228 247 237 245 259 272 274 278 269 275 279 258 266 256 235 232 235 241 254 245 237 234 239 241 238 229 241 250 254 255 245
186 183 190 199 197 197 201 201 204 209 217 225 235 251 261 261 268 269 276 259 275 276 261 276 278 261 252 237 239 245 247 254 242 245 243 242 240 247 244 246 253 256 247
189 195 200 201 204 204 199 199 204 205 210 219 235 245 264 257 259 265 254 262 265 279 269 286 286 282 253 249 247 248 253 250 251 255 250 244 239 240 248 244 247 253 256
204 209 210 212 210 212 206 199 198 198 211 220 240 250 274 268 255 250 274 266 267 269 276 279 278 277 267 257 252 251 244 241 255 259 257 251 243 248 238 242 239 245 257
222 224 226 225 226 215 214 204 204 194 197 198 223 281 298 293 281 265 269 271 277 283 277 275 277 278 276 269 264 255 252 258 256 259 250 248 247 246 238 238 246 244 247
246 243 240 238 235 224 203 198 186 174 173 174 188 186 338 319 321 287 279 279 281 287 284 275 273 280 277 276 268 261 251 252 257 255 260 257 251 236 235 246 241 235 238
285 272 261 251 242 225 203 189 168 194 201 211 213 205 295 304 295 279 277 285 287 279 280 274 276 273 275 273 282 269 261 257 251 260 257 260 253 248 241 232 246 246 240
341 325 285 255 235 213 194 183 163 158 197 302 308 283 272 242 278 276 285 283 282 284 280 276 278 269 267 269 277 270 266 262 260 256 262 259 252 249 244 248 245 250 244
46 56 63 89 127 164 177 176 182 227 277 334 236 275 282 290 279 280 284 293 292 286 285 282 275 275 277 275 279 277 277 276 275 270 265 262 255 251 248 247 252 250 246
67 68 75 84 92 100 102 102 147 64 91 46 350 321 294 277 284 293 301 303 294 297 301 300 295 290 289 283 280 283 283 282 283 283 280 273 267 256 256 250 250 256 255
79 81 83 86 88 84 83 86 83 82 103 72 333 284 283 294 303 315 317 314 312 314 311 308 303 300 297 287 296 300 300 291 289 283 279 277 277 264 258 258 259 264 264
89 87 86 86 83 80 81 69 71 77 85 79 54 13 351 330 326 323 322 317 313 310 313 310 305 300 306 300 305 301 305 311 302 299 286 275 266 260 263 266 274 273 266
87 86 83 79 70 60 54 60 76 77 59 39 8 3 352 340 330 324 312 307 309 309 310 308 303 295 303 291 300 294 291 290 287 292 296 287 280 278 278 269 263 267 277
92 93 72 31 9 3 346 5 1 2 356 353 351 342 332 318 309 308 314 320 324 322 319 313 304 298 303 302 301 306 296 287 288 285 282 286 288 290 287 281 275 272 273
164 226 298 308 328 319 323 358 339 336 333 334 333 328 323 319 316 320 321 323 326 323 315 312 308 302 302 301 301 297 296 294 295 292 278 274 290 283 272 286 280 281 287
225 263 282 289 297 317 323 330 322 318 330 325 319 318 315 314 314 316 317 314 316 314 321 318 315 311 310 307 305 298 295 296 294 294 289 286 286 285 283 278 272 276 296
242 256 264 274 285 308 313 306 303 310 313 311 313 311 310 309 310 309 310 310 312 311 317 320 317 311 310 311 315 313 312 300 293 290 289 287 284 287 282 277 278 271 274
254 263 275 283 279 294 306 300 300 300 296 300 308 305 304 304 305 312 316 310 310 308 314 318 320 315 314 311 314 317 310 309 307 294 291 284 284 282 282 283 282 265 249
273 274 277 286 293 292 296 296 299 289 281 281 292 299 304 302 299 308 313 314 313 311 309 309 314 313 310 307 307 308 311 313 310 298 294 288 289 292 288 281 270 240 229
280 281 286 294 286 289 294 288 292 284 283 286 289 292 296 298 304 307 310 309 303 303 303 301 305 305 298 298 300 303 309 311 307 305 294 291 296 300 289 276 240 220 210
289 293 295 287 282 281 283 283 281 284 286 285 285 292 300 301 306 308 310 306 305 302 301 304 307 306 298 296 301 299 303 307 292 295 296 290 290 297 277 271 226 198 179
Wind_Speed_850mb
22 20 12 12 20 25 30 35 40 43 42 36 30 23 20 19 19 16 22 23 22 28 21 11 16 13 17 16 16 13 16 17 18 17 19 20 23 25 24 23 21 22 22
22 23 21 15 14 22 25 26 34 41 43 35 24 19 12 11 11 13 16 20 26 27 22 17 16 19 16 19 16 19 16 16 19 18 18 22 22 27 33 30 29 29 26
14 17 22 19 13 18 22 23 29 33 39 31 23 20 14 7 7 11 13 18 20 21 22 22 17 25 20 17 17 18 23 19 20 27 21 14 18 13 18 29 33 34 33
5 13 20 21 18 19 21 22 25 30 31 25 20 18 12 8 8 12 15 26 24 23 23 22 21 25 20 22 20 20 21 27 24 22 28 33 23 15 16 16 24 33 37
9 13 12 15 16 15 18 21 23 27 29 27 25 17 13 12 17 19 21 20 22 20 22 23 22 24 30 27 28 25 24 24 26 25 24 26 28 29 32 31 21 23 30
13 13 13 14 14 14 15 15 19 24 27 26 25 16 17 17 19 20 17 16 16 20 22 22 24 26 30 37 34 36 32 26 27 26 27 29 25 30 28 33 32 28 21
20 19 17 14 15 18 21 22 26 28 27 26 23 19 20 22 24 18 16 16 16 19 20 24 26 24 29 33 34 37 35 34 32 33 30 29 32 32 30 28 33 31 27
26 25 23 21 22 24 25 26 27 28 27 24 21 24 22 21 19 20 18 16 15 20 25 28 28 26 27 31 34 35 37 34 37 37 35 34 38 36 33 35 32 35 32
29 27 25 24 22 25 26 26 28 27 23 20 19 20 19 18 21 25 25 20 20 19 23 27 28 30 27 31 35 37 37 41 43 44 43 42 34 35 34 34 35 33 40
29 28 27 26 24 22 21 19 19 17 17 15 10 9 14 19 28 30 26 26 25 28 29 28 26 29 32 30 34 35 39 48 48 44 37 40 41 38 31 36 35 34 40
30 28 28 26 24 17 15 16 17 17 18 17 19 3 17 15 37 48 39 32 30 35 35 33 33 32 33 33 40 44 39 39 40 46 48 48 46 38 42 42 37 40 42
21 25 26 25 22 17 16 16 20 28 27 18 14 14 36 51 76 62 50 42 41 35 39 37 37 36 36 31 30 44 48 48 42 44 48 48 48 51 47 45 48 40 38
13 11 12 13 15 15 17 17 19 17 8 20 37 57 51 41 42 55 47 42 34 35 39 38 38 33 31 32 29 34 37 44 49 52 56 54 49 54 50 54 48 53 46
13 14 11 7 7 9 12 13 15 19 21 7 6 10 13 26 33 31 28 28 28 32 30 33 35 37 37 36 36 36 37 40 46 55 61 64 63 64 59 58 61 60 59
23 26 24 24 20 17 14 8 4 3 8 6 6 11 15 19 18 21 23 23 23 27 29 30 31 34 36 33 28 31 34 36 43 42 43 48 58 68 66 66 63 62 66
25 28 30 32 29 22 20 19 14 9 7 3 2 3 7 12 15 17 18 18 21 23 24 27 24 24 24 25 28 30 33 36 43 46 45 48 44 47 57 62 67 67 66
22 23 24 22 19 15 12 9 9 9 7 5 4 6 10 13 19 21 18 19 22 21 22 25 30 27 25 37 35 32 35 36 39 47 47 48 45 42 37 41 43 46 59
16 15 14 14 13 11 10 9 8 7 5 5 7 13 19 20 18 14 19 29 34 40 38 39 38 36 38 39 39 42 47 52 55 50 49 43 49 51 59 55 54 62 53
9 7 5 5 7 8 10 8 8 11 13 16 16 19 19 19 21 27 30 29 30 30 31 33 37 35 34 42 43 45 44 45 46 44 49 54 58 47 48 50 50 54 58
4 1 3 7 8 12 12 9 11 12 12 14 16 18 19 20 23 22 26 24 25 32 38 41 41 40 42 43 46 44 46 40 40 46 49 49 48 63 72 45 47 52 53
5 6 6 6 5 10 13 9 11 10 11 15 18 21 19 20 23 23 22 29 32 32 37 43 42 41 39 40 45 43 48 46 48 49 50 50 51 44 45 44 54 56 47
7 6 8 7 6 11 10 11 12 10 15 16 16 18 20 20 21 25 30 33 35 38 44 45 47 42 39 40 41 48 49 50 56 51 48 46 50 51 49 52 56 54 43
10 9 10 11 9 8 12 13 17 18 17 15 16 21 23 25 26 29 35 39 40 43 48 52 51 47 43 43 43 39 47 54 55 55 48 48 51 56 59 56 49 44 47
13 13 13 13 15 15 15 20 23 22 22 24 29 29 30 32 33 35 44 44 48 50 52 54 54 55 52 48 42 45 51 49 47 52 47 49 50 51 47 44 39 34 35
12 9 12 16 17 18 19 20 22 24 31 35 36 37 41 39 42 46 48 54 51 52 59 51 56 59 55 49 54 54 51 58 58 55 44 41 45 42 38 29 26 31 29
13 15 17 20 23 26 30 31 30 29 33 38 42 43 45 50 49 52 56 55 61 58 58 60 55 51 42 47 50 57 62 69 50 44 36 31 32 32 30 24 28 32 32
Wind_Direction_850mb
211 208 215 219 219 212 210 212 215 214 215 218 220 234 251 279 266 244 258 259 261 280 283 279 266 248 225 218 228 237 226 225 228 233 240 248 248 239 236 235 230 227 221
214 224 223 230 223 209 210 211 213 211 211 216 222 227 227 231 216 234 280 286 287 286 277 253 252 241 224 227 240 216 211 219 225 226 246 249 244 248 239 234 237 235 236
224 206 205 199 203 201 206 208 209 205 205 205 229 228 224 221 252 262 273 291 282 277 267 263 245 246 229 242 232 215 208 220 237 224 232 249 252 253 241 239 235 236 238
184 153 165 180 190 197 199 197 198 195 197 210 219 223 212 216 250 284 255 283 272 266 261 263 266 247 227 226 231 224 219 230 230 242 238 239 249 255 257 244 244 236 236
147 144 165 183 190 193 195 192 187 190 201 212 217 231 223 241 270 283 274 279 269 268 268 261 263 251 228 236 219 226 244 239 232 241 244 243 243 250 251 266 246 245 240
176 166 164 172 181 199 210 203 196 200 210 219 228 247 237 245 259 272 274 278 269 275 279 258 266 256 235 232 235 241 254 245 237 234 239 241 238 229 241 250 254 255 245
186 183 190 199 197 197 201 201 204 209 217 225 235 251 261 261 268 269 276 259 275 276 261 276 278 261 252 237 239 245 247 254 242 245 243 242 240 247 244 246 253 256 247
189 195 200 201 204 204 199 199 204 205 210 219 235 245 264 257 259 265 254 262 265 279 269 286 286 282 253 249 247 248 253 250 251 255 250 244 239 240 248 244 247 253 256
204 209 210 212 210 212 206 199 198 198 211 220 240 250 274 268 255 250 274 266 267 269 276 279 278 277 267 257 252 251 244 241 255 259 257 251 243 248 238 242 239 245 257
222 224 226 225 226 215 214 204 204 194 197 198 223 281 298 293 281 265 269 271 277 283 277 275 277 278 276 269 264 255 252 258 256 259 250 248 247 246 238 238 246 244 247
246 243 240 238 235 224 203 198 186 174 173 174 188 186 338 319 321 287 279 279 281 287 284 275 273 280 277 276 268 261 251 252 257 255 260 257 251 236 235 246 241 235 238
285 272 261 251 242 225 203 189 168 194 201 211 213 205 295 304 295 279 277 285 287 279 280 274 276 273 275 273 282 269 261 257 251 260 257 260 253 248 241 232 246 246 240
341 325 285 255 235 213 194 183 163 158 197 302 308 283 272 242 278 276 285 283 282 284 280 276 278 269 267 269 277 270 266 262 260 256 262 259 252 249 244 248 245 250 244
46 56 63 89 127 164 177 176 182 227 277 334 236 275 282 290 279 280 284 293 292 286 285 282 275 275 277 275 279 277 277 276 275 270 265 262 255 251 248 247 252 250 246
67 68 75 84 92 100 102 102 147 64 91 46 350 321 294 277 284 293 301 303 294 297 301 300 295 290 289 283 280 283 283 282 283 283 280 273 267 256 256 250 250 256 255
79 81 83 86 88 84 83 86 83 82 103 72 333 284 283 294 303 315 317 314 312 314 311 308 303 300 297 287 296 300 300 291 289 283 279 277 277 264 258 258 259 264 264
89 87 86 86 83 80 81 69 71 77 85 79 54 13 351 330 326 323 322 317 313 310 313 310 305 300 306 300 305 301 305 311 302 299 286 275 266 260 263 266 274 273 266
87 86 83 79 70 60 54 60 76 77 59 39 8 3 352 340 330 324 312 307 309 309 310 308 303 295 303 291 300 294 291 290 287 292 296 287 280 278 278 269 263 267 277
92 93 72 31 9 3 346 5 1 2 356 353 351 342 332 318 309 308 314 320 324 322 319 313 304 298 303 302 301 306 296 287 288 285 282 286 288 290 287 281 275 272 273
164 226 298 308 328 319 323 358 339 336 333 334 333 328 323 319 316 320 321 323 326 323 315 312 308 302 302 301 301 297 296 294 295 292 278 274 290 283 272 286 280 281 287
225 263 282 289 297 317 323 330 322 318 330 325 319 318 315 314 314 316 317 314 316 314 321 318 315 311 310 307 305 298 295 296 294 294 289 286 286 285 283 278 272 276 296
242 256 264 274 285 308 313 306 303 310 313 311 313 311 310 309 310 309 310 310 312 311 317 320 317 311 310 311 315 313 312 300 293 290 289 287 284 287 282 277 278 271 274
254 263 275 283 279 294 306 300 300 300 296 300 308 305 304 304 305 312 316 310 310 308 314 318 320 315 314 311 314 317 310 309 307 294 291 284 284 282 282 283 282 265 249
273 274 277 286 293 292 296 296 299 289 281 281 292 299 304 302 299 308 313 314 313 311 309 309 314 313 310 307 307 308 311 313 310 298 294 288 289 292 288 281 270 240 229
280 281 286 294 286 289 294 288 292 284 283 286 289 292 296 298 304 307 310 309 303 303 303 301 305 305 298 298 300 303 309 311 307 305 294 291 296 300 289 276 240 220 210
289 293 295 287 282 281 283 283 281 284 286 285 285 292 300 301 306 308 310 306 305 302 301 304 307 306 298 296 301 299 303 307 292 295 296 290 290 297 277 271 226 198 179